1320364834975,3.26692
1320364894975,3.24084
1320364954975,3.24575
1320365014975,3.23514
1320365074975,3.18956
1320365134975,3.20866
1320365194975,3.20252
1320365254975,3.19069
1320365314975,3.17455
1320365374975,3.17220
1320365434975,3.15081
1320365494975,3.14961
1320365554975,3.14490
1320365614975,3.17010
1320365674975,3.14868
1320365734975,3.12934
1320365794975,3.12473
1320365854975,3.11835
1320365914975,3.12577
1320365974975,3.10308
1320366034975,3.09972
1320366094975,3.10457
1320366154975,3.10817
1320366214975,3.10551
1320366274975,3.07785
1320366334975,3.09164
1320366394975,3.08245
1320366454975,3.07970
1320366514975,3.06507
1320366574975,3.08681
1320366634975,3.07807
1320366694975,3.08140
1320366754975,3.08072
1320366814975,3.07670
1320366874975,3.06690
1320366934975,3.06425
1320366994975,3.06183
1320367054975,3.05768
1320367114975,3.05226
1320367174975,3.07455
1320367234975,3.04425
1320367294975,3.05184
1320367354975,3.06325
1320367414975,3.06719
1320367474975,3.06997
1320367534975,3.06344
1320367594975,3.05668
1320367654975,3.04163
1320367714975,3.04724
1320367774975,3.04724
1320367834975,3.05143
1320367894975,3.06096
1320367954975,3.03907
1320368014975,3.04676
1320368074975,3.06224
1320368134975,3.02822
1320368194975,3.04419
1320368254975,3.02255
1320368314975,3.04357
1320368374975,3.04262
1320368434985,3.04215
1320368494985,3.04510
1320368554985,3.03179
1320368614985,3.15065
1320368674985,3.04254
1320368734985,3.03958
1320368794985,3.08224
1320368854985,3.04050
1320368914985,3.06085
1320368974985,3.06067
1320369034985,3.05790
1320369094985,3.04856
1320369154985,3.05105
1320369214985,3.05996
1320369274985,3.03892
1320369334985,3.05476
1320369394985,3.07093
1320369454985,3.05714
1320369514985,3.03803
1320369574985,3.05859
1320369634985,3.05835
1320369694985,3.04585
1320369754985,3.06751
1320369814985,3.06439
1320369874985,3.04808
1320369934985,3.06899
1320369994985,3.04959
1320370054985,3.06250
1320370114985,3.04265
1320370174985,3.03922
1320370234985,3.05197
1320370294985,3.03906
1320370354985,3.08509
1320370414985,2.95282
1320370474985,3.03697
1320370534985,3.04401
1320370594985,3.06454
1320370654985,3.04938
1320370714985,3.04457
1320370774985,3.06777
1320370834985,3.04120
1320370894985,3.04121
1320370954985,3.07578
1320371014985,3.05715
1320371074985,3.05775
1320371134985,3.05505
1320371194985,3.04270
1320371254985,3.06126
1320371314985,3.06756
1320371374985,3.05701
1320371434985,3.05091
1320371494985,3.03843
1320371554985,3.04921
1320371614985,3.05960
1320371674985,3.02626
1320371734985,3.03291
1320371794985,3.03604
1320371854985,3.04219
1320371914985,3.03398
1320371974985,3.03174
1320372034995,3.03410
1320372094995,3.05557
1320372154995,3.06520
1320372214995,3.02606
1320372274995,3.03477
1320372334995,3.03247
1320372394995,3.03533
1320372454995,3.04258
1320372514995,3.03944
1320372574995,3.05606
1320372634995,3.05242
1320372694995,3.06007
1320372754995,3.04643
1320372814995,3.03509
1320372874995,3.02446
1320372934995,3.05336
1320372994995,3.03521
1320373054995,3.07132
1320373114995,3.04814
1320373174995,3.06515
1320373234995,3.07143
1320373294995,3.08040
1320373354995,3.05953
1320373414995,3.06179
1320373474995,3.07438
1320373534995,3.08279
1320373594995,3.05131
1320373654995,3.06017
1320373714995,3.06805
1320373774995,3.09065
1320373834995,3.07671
1320373894995,3.07720
1320373954995,3.06860
1320374014995,3.07292
1320374074995,3.05329
1320374134995,3.07690
1320374194995,3.05859
1320374254995,3.07591
1320374314995,3.07314
1320374374995,3.07909
1320374434995,3.08416
1320374494995,3.07210
1320374554995,3.08571
1320374614995,3.07620
1320374674995,3.05914
1320374734995,3.07094
1320374794995,3.07974
1320374854995,3.06379
1320374914995,3.07209
1320374974995,3.07675
1320375034995,3.07203
1320375094995,3.08160
1320375154995,3.10451
1320375214995,3.08702
1320375274995,3.06865
1320375334995,3.10864
1320375394995,3.08646
1320375454995,3.09111
1320375514995,3.08025
1320375574995,3.07998
1320375625005,3.09218
1320375685005,3.09720
1320375745005,3.10517
1320375805005,3.09701
1320375865005,3.11271
1320375925005,3.12771
1320375985005,3.10706
1320376045005,3.10629
1320376105005,3.09815
1320376165005,3.10767
1320376225005,3.09996
1320376285005,3.10810
1320376345005,3.10645
1320376405005,3.11342
1320376465005,3.10972
1320376525005,3.09687
1320376585005,3.12631
1320376645005,3.11874
1320376705005,3.13047
1320376765005,3.11660
1320376825005,3.11045
1320376885005,3.12822
1320376945005,3.10514
1320377005005,3.11344
1320377065005,3.13362
1320377125005,3.13976
1320377185005,3.12365
1320377245005,3.11438
1320377305005,3.15328
1320377365005,3.09731
1320377425005,3.13832
1320377485005,3.13552
1320377545005,3.10029
1320377605005,3.11378
1320377665005,3.10478
1320377725005,3.11005
1320377785005,3.10056
1320377845005,3.12151
1320377905005,3.11355
1320377965005,3.09870
1320378025005,3.12124
1320378085005,3.11035
1320378145005,3.12233
1320378205005,3.12733
1320378265005,3.12962
1320378325005,3.13999
1320378385005,3.12634
1320378445005,3.13643
1320378505005,3.14141
1320378565005,3.16011
1320378625005,3.14010
1320378685005,3.15345
1320378745005,3.13330
1320378805005,3.13496
1320378865005,3.13157
1320378925005,3.12964
1320378985005,3.14357
1320379045005,3.15508
1320379105005,3.16195
1320379165005,3.13886
1320379225015,3.14143
1320379285015,3.13411
1320379345015,3.14479
1320379405015,3.15727
1320379465015,3.15621
1320379525015,3.17838
1320379585015,3.13292
1320379645015,3.15261
1320379705015,3.18823
1320379765015,3.18430
1320379825015,3.18474
1320379885015,3.18000
1320379945015,3.18762
1320380005015,3.18776
1320380065015,3.19175
1320380125015,3.20726
1320380185015,3.19229
1320380245015,3.19909
1320380305015,3.20311
1320380365015,3.20280
1320380425015,3.21638
1320380485015,3.21806
1320380545015,3.21305
1320380605015,3.19676
1320380665015,3.22878
1320380725015,3.20626
1320380785015,3.21393
1320380845015,3.23702
1320380905015,3.24192
1320380965015,3.24974
1320381025015,3.24211
1320381085015,3.24109
1320381145015,3.24339
1320381205015,3.25492
1320381265015,3.24348
1320381325015,3.25672
1320381385015,3.28000
1320381445015,3.24917
1320381505015,3.25094
1320381565015,3.23941
1320381625015,3.27210
1320381685015,3.25863
1320381745015,3.26198
1320381805015,3.26150
1320381865015,3.24831
1320381925015,3.25630
1320381985015,3.26477
1320382045015,3.26306
1320382105015,3.26076
1320382165015,3.24128
1320382225015,3.21914
1320382285015,3.23596
1320382345015,3.22029
1320382405015,3.23562
1320382465015,3.21716
1320382525015,3.23396
1320382585015,3.23155
1320382645015,3.21178
1320382705015,3.22506
1320382765015,3.19641
1320382825026,3.22716
1320382885026,3.21707
1320382945026,3.21156
1320383005026,3.23293
1320383065026,3.20974
1320383125026,3.22994
1320383185026,3.21171
1320383245026,3.20772
1320383305026,3.22250
1320383365026,3.21599
1320383425026,3.24857
1320383485026,3.21739
1320383545026,3.23777
1320383605026,3.22841
1320383665026,3.21942
1320383725026,3.21564
1320383785026,3.21951
1320383845026,3.22091
1320383905026,3.22543
1320383965026,3.21791
1320384025026,3.22890
1320384085026,3.23485
1320384145026,3.22353
1320384205026,3.23500
1320384265026,3.19550
1320384325026,3.37971
1320384385026,3.21623
1320384445026,3.21042
1320384505026,3.21016
1320384565026,3.19570
1320384625026,3.15506
1320384685026,3.19268
1320384745026,3.21263
1320384805026,3.20248
1320384865026,3.21091
1320384925026,3.20896
1320384985026,3.17263
1320385045026,3.19968
1320385105026,3.10252
1320385165026,3.18885
1320385225026,3.18970
1320385285026,3.20418
1320385345026,3.19928
1320385405026,3.18169
1320385465026,3.19528
1320385525026,3.17300
1320385585026,3.16574
1320385645026,3.20591
1320385705026,3.17679
1320385765026,3.18676
1320385825026,3.15719
1320385885026,3.16906
1320385945026,3.16278
1320386005026,3.12718
1320386065026,3.15553
1320386125026,3.15479
1320386185026,3.15224
1320386245026,3.13731
1320386305026,3.15143
1320386365026,3.15848
1320386425036,3.14459
1320386485036,3.15470
1320386545036,3.14113
1320386605036,3.15189
1320386665036,3.16254
1320386725036,3.14139
1320386785036,3.16252
1320386845036,3.14926
1320386905036,3.19274
1320386965036,3.19064
1320387025036,3.14958
1320387085036,3.16838
1320387145036,3.16424
1320387205036,3.14610
1320387265036,3.13190
1320387325036,3.15990
1320387385036,3.13842
1320387445036,3.13610
1320387505036,3.14347
1320387565036,3.28347
1320387625036,3.18794
1320387685036,3.13735
1320387745036,3.13287
1320387805036,3.13268
1320387865036,3.12913
1320387925036,3.13273
1320387985036,3.12629
1320388045036,3.11619
1320388105036,3.12032
1320388165036,3.11792
1320388225036,3.11214
1320388285036,3.10950
1320388345036,3.13080
1320388405036,3.13538
1320388465036,3.12846
1320388525036,3.12592
1320388585036,3.11222
1320388645036,3.11323
1320388705036,3.12001
1320388765036,3.10331
1320388825036,3.10604
1320388885036,3.12225
1320388945036,3.11639
1320389005036,3.11675
1320389065036,3.10334
1320389125036,3.13612
1320389185036,3.11534
1320389245036,3.10636
1320389305036,3.09405
1320389365036,3.10782
1320389425036,3.09368
1320389485036,3.09795
1320389545036,3.10104
1320389605036,3.08877
1320389665036,3.09538
1320389725036,3.08910
1320389785036,3.10029
1320389845036,3.09987
1320389905036,3.11120
1320389965036,3.10959
1320390025046,3.08269
1320390085046,3.10494
1320390145046,3.07599
1320390205046,3.07316
1320390265046,3.07341
1320390325046,3.08343
1320390385046,3.09362
1320390445046,3.08714
1320390505046,3.07564
1320390565046,3.08902
1320390625046,3.08114
1320390685046,3.07245
1320390745046,3.06448
1320390805046,3.07492
1320390865046,3.05741
1320390925046,3.06745
1320390985046,3.08123
1320391045046,3.05268
1320391105046,3.06097
1320391165046,3.06759
1320391225046,3.06580
1320391285046,3.04905
1320391345046,3.04369
1320391405046,3.05218
1320391465046,3.05424
1320391525046,3.02525
1320391585046,3.05439
1320391645046,3.02272
1320391705046,3.04019
1320391765046,3.07283
1320391825046,3.03738
1320391885046,3.05652
1320391945046,3.04928
1320392005046,3.07833
1320392065046,3.05793
1320392125046,3.01944
1320392185046,3.02720
1320392245046,3.04146
1320392305046,3.02713
1320392365046,3.03903
1320392425046,3.02585
1320392485046,3.04090
1320392545046,3.01746
1320392605046,3.03197
1320392665046,3.02508
1320392725046,3.04235
1320392785046,3.03211
1320392845046,3.03028
1320392905046,3.02738
1320392965046,3.03679
1320393025046,3.00524
1320393085046,3.04108
1320393145046,3.02190
1320393205046,3.01868
1320393265046,3.03842
1320393325046,3.02475
1320393385046,3.01800
1320393445046,3.00499
1320393505046,3.03329
1320393565046,3.01854
1320393625057,3.00275
1320393685057,3.01227
1320393745057,3.01505
1320393805057,3.00716
1320393865057,3.02604
1320393925057,3.00558
1320393985057,3.02144
1320394045057,3.01732
1320394105057,3.02225
1320394165057,3.02018
1320394225057,3.01572
1320394285057,3.02074
1320394345057,3.00846
1320394405057,3.02249
1320394465057,2.99684
1320394525057,3.01865
1320394585057,3.01095
1320394645057,3.02055
1320394705057,3.01124
1320394765057,3.01291
1320394825057,2.98212
1320394885057,3.01697
1320394945057,3.02650
1320395005057,3.00257
1320395065057,3.01313
1320395125057,3.02547
1320395185057,3.01023
1320395245057,2.96309
1320395305057,3.01061
1320395365057,2.99238
1320395425057,2.99322
1320395485057,3.00380
1320395545057,2.99024
1320395605057,3.01343
1320395665057,2.97499
1320395725057,2.97674
1320395785057,3.01864
1320395845057,2.99552
1320395905057,3.01248
1320395965057,3.01262
1320396025057,3.01188
1320396085057,2.98232
1320396145057,3.01484
1320396205057,2.99221
1320396265057,2.98227
1320396325057,3.00560
1320396385057,2.97916
1320396445057,2.96982
1320396505057,2.99297
1320396565057,2.98837
1320396625057,2.99422
1320396685057,2.97613
1320396745057,2.98798
1320396805057,2.98980
1320396865057,2.99999
1320396925057,2.97302
1320396985057,3.00224
1320397045057,2.99530
1320397105057,2.99259
1320397165057,3.00025
1320397225068,2.99678
1320397285068,2.98572
1320397345068,2.98368
1320397405068,2.98821
1320397465068,2.99156
1320397525068,3.01037
1320397585068,2.98234
1320397645068,2.98012
1320397705068,3.00036
1320397765068,2.99040
1320397825068,2.98310
1320397885068,2.97391
1320397945068,2.98152
1320398005068,2.98319
1320398065068,2.99484
1320398125068,2.97641
1320398185068,2.98284
1320398245068,2.99855
1320398305068,2.98510
1320398365068,2.97453
1320398425068,2.97584
1320398485068,2.97627
1320398545068,2.97830
1320398605068,2.97444
1320398665068,2.98533
1320398725068,2.99354
1320398785068,3.00396
1320398845068,2.97667
1320398905068,2.98733
1320398965068,2.97832
1320399025068,2.98065
1320399085068,2.97387
1320399145068,2.99135
1320399205068,2.98127
1320399265068,3.00597
1320399325068,2.99480
1320399385068,2.99116
1320399445068,2.98749
1320399505068,2.98613
1320399565068,2.97609
1320399625068,2.98280
1320399685068,2.98207
1320399745068,2.99856
1320399805068,2.99036
1320399865068,2.99612
1320399925068,2.96522
1320399985068,2.99006
1320400045068,2.97349
1320400105068,2.97711
1320400165068,3.00637
1320400225068,2.97887
1320400285068,2.96011
1320400345068,3.00895
1320400405068,2.98890
1320400465068,2.99641
1320400525068,2.98634
1320400585068,2.99053
1320400645068,3.00027
1320400705068,2.98907
1320400765068,2.99125
1320400825079,2.99561
1320400885079,3.00529
1320400945079,3.01056
1320401005079,3.00667
1320401065079,3.00504
1320401125079,2.99432
1320401185079,2.99866
1320401245079,2.97915
1320401305079,2.98802
1320401365079,2.99672
1320401425079,3.01836
1320401485079,3.02028
1320401545079,2.99524
1320401605079,3.01815
1320401665079,3.00182
1320401725079,3.00372
1320401785079,3.00775
1320401845079,3.00130
1320401905079,3.00369
1320401965079,3.01304
1320402025079,3.02011
1320402085079,3.00348
1320402145079,3.01194
1320402205079,3.03774
1320402265079,3.02065
1320402325079,3.00194
1320402385079,2.98697
1320402445079,3.01316
1320402505079,3.01967
1320402565079,3.02271
1320402625079,3.02076
1320402685079,3.00391
1320402745079,3.01254
1320402805079,3.02440
1320402865079,3.00450
1320402925079,3.01448
1320402985079,3.01766
1320403045079,3.02470
1320403105079,3.00182
1320403165079,3.03024
1320403225079,3.02411
1320403285079,3.02402
1320403345079,3.01469
1320403405079,3.01096
1320403465079,3.01826
1320403525079,2.99317
1320403585079,3.02473
1320403645079,3.00622
1320403705079,3.01224
1320403765079,3.04195
1320403825079,3.03429
1320403885079,3.01798
1320403945079,3.01708
1320404005079,3.01328
1320404065079,3.01127
1320404125079,3.02885
1320404185079,3.03645
1320404245079,3.02917
1320404305079,2.99362
1320404365079,3.02546
1320404425091,3.04721
1320404485091,3.03287
1320404545091,3.06043
1320404605091,3.02733
1320404665091,3.05182
1320404725091,3.04772
1320404785091,3.01060
1320404845091,3.05316
1320404905091,3.04242
1320404965091,3.05650
1320405025091,3.04468
1320405085091,3.02679
1320405145091,3.03684
1320405205091,3.03143
1320405265091,3.06264
1320405325091,3.05405
1320405385091,3.05325
1320405445091,3.07027
1320405505091,3.06421
1320405565091,3.05828
1320405625091,3.06308
1320405685091,3.07197
1320405745091,3.06766
1320405805091,3.04387
1320405865091,3.07513
1320405925091,3.06625
1320405985091,3.04043
1320406045091,3.08472
1320406105091,3.07393
1320406165091,3.06218
1320406225091,3.05832
1320406285091,3.05313
1320406345091,3.07436
1320406405091,3.03833
1320406465091,3.04068
1320406525091,3.05986
1320406585091,3.06105
1320406645091,3.05349
1320406705091,3.07640
1320406765091,3.03662
1320406825091,3.06260
1320406885091,3.04106
1320406945091,3.04237
1320407005091,3.03642
1320407065091,3.03754
1320407125091,3.04709
1320407185091,3.04501
1320407245091,3.05147
1320407305091,3.03404
1320407365091,3.04050
1320407425091,3.05279
1320407485091,3.03335
1320407545091,3.05810
1320407605091,3.03694
1320407665091,3.03938
1320407725091,3.03674
1320407785091,3.03815
1320407845091,3.04632
1320407905091,3.04132
1320407965091,3.03119
1320408025102,3.02783
1320408085102,3.03911
1320408145102,3.01750
1320408205102,3.04270
1320408265102,3.02851
1320408325102,3.02911
1320408385102,3.06237
1320408445102,3.27479
1320408505102,3.04297
1320408565102,3.02310
1320408625102,3.03912
1320408685102,3.02791
1320408745102,3.01750
1320408805102,3.02096
1320408865102,3.01718
1320408925102,3.07011
1320408985102,3.03117
1320409045102,3.00205
1320409105102,3.01983
1320409165102,3.03323
1320409225102,3.03116
1320409285102,3.03035
1320409345102,3.02460
1320409405102,3.02995
1320409465102,3.03149
1320409525102,3.02452
1320409585102,3.01519
1320409645102,3.03213
1320409705102,3.01967
1320409765102,3.01084
1320409825102,3.03188
1320409885102,3.02856
1320409945102,3.02715
1320410005102,3.03543
1320410065102,3.04158
1320410125102,3.02496
1320410185102,3.02907
1320410245102,3.03441
1320410305102,3.01232
1320410365102,3.03010
1320410425102,2.99973
1320410485102,3.03224
1320410545102,3.02491
1320410605102,3.03015
1320410665102,3.01864
1320410725102,3.02137
1320410785102,3.09620
1320410845102,3.03078
1320410905102,3.03412
1320410965102,3.02087
1320411025102,3.01449
1320411085102,3.02859
1320411145102,3.05626
1320411205102,3.05724
1320411265102,3.03315
1320411325102,2.87852
1320411385102,3.00410
1320411445102,3.02507
1320411505102,3.02243
1320411565102,3.01396
1320411625114,3.03556
1320411685114,3.02548
1320411745114,3.02227
1320411805114,3.03321
1320411865114,3.03645
1320411925114,3.01249
1320411985114,3.07308
1320412045114,3.02235
1320412105114,3.01019
1320412165114,3.02839
1320412225114,3.01097
1320412285114,3.01850
1320412345114,2.99194
1320412405114,3.04285
1320412465114,3.02614
1320412525114,3.03344
1320412585114,3.03053
1320412645114,3.03214
1320412705114,3.01575
1320412765114,3.03369
1320412825114,3.03725
1320412885114,3.04114
1320412945114,3.02175
1320413005114,3.01317
1320413065114,3.01791
1320413125114,3.01897
1320413185114,3.01249
1320413245114,3.03602
1320413305114,3.01260
1320413365114,3.01176
1320413425114,3.02726
1320413485114,3.02518
1320413545114,3.01296
1320413605114,3.01949
1320413665114,3.01752
1320413725114,3.02716
1320413785114,3.02258
1320413845114,3.02166
1320413905114,3.01908
1320413965114,3.05468
1320414025114,3.04668
1320414085114,3.01233
1320414145114,3.04622
1320414205114,3.04534
1320414265114,3.03217
1320414325114,3.02380
1320414385114,3.03690
1320414445114,3.02540
1320414505114,3.01104
1320414565114,3.03416
1320414625114,3.03547
1320414685114,3.01962
1320414745114,3.00915
1320414805114,3.03662
1320414865114,3.06285
1320414925114,3.02745
1320414985114,3.02527
1320415045114,3.04292
1320415105114,3.02927
1320415165114,3.02343
1320415225126,3.01544
1320415285126,3.03437
1320415345126,3.02229
1320415405126,3.02532
1320415465126,3.03558
1320415525126,3.03455
1320415585126,3.02432
1320415645126,3.01487
1320415705126,3.03059
1320415765126,3.05235
1320415825126,3.06726
1320415885126,3.03955
1320415945126,3.04521
1320416005126,3.03026
1320416065126,3.04306
1320416125126,3.01642
1320416185126,3.04082
1320416245126,3.03528
1320416305126,3.02716
1320416365126,3.01589
1320416425126,3.05340
1320416485126,3.03459
1320416545126,3.02248
1320416605126,3.04895
1320416665126,3.02832
1320416725126,3.03429
1320416785126,3.04140
1320416845126,3.03882
1320416905126,3.02910
1320416965126,3.03790
1320417025126,3.01634
1320417085126,3.01161
1320417145126,3.32468
1320417205126,3.03972
1320417265126,3.03968
1320417325126,3.03753
1320417385126,3.03064
1320417445126,3.03121
1320417505126,3.03791
1320417565126,3.04558
1320417625126,3.04493
1320417685126,3.05271
1320417745126,3.04638
1320417805126,3.03477
1320417865126,3.04034
1320417925126,3.03516
1320417985126,3.00880
1320418045126,3.04368
1320418105126,3.01255
1320418165126,3.04170
1320418225126,3.04600
1320418285126,3.01342
1320418345126,3.04268
1320418405126,3.04223
1320418465126,3.03390
1320418525126,3.02359
1320418585126,3.03400
1320418645126,3.02765
1320418705126,3.05089
1320418765126,3.03079
1320418825138,3.03515
1320418885138,3.05288
1320418945138,3.02295
1320419005138,3.06511
1320419065138,3.05009
1320419125138,3.05512
1320419185138,3.01643
1320419245138,3.02710
1320419305138,3.02751
1320419365138,3.04006
1320419425138,3.04647
1320419485138,3.03884
1320419545138,3.05442
1320419605138,3.02411
1320419665138,3.02528
1320419725138,3.06146
1320419785138,3.05255
1320419845138,3.02696
1320419905138,3.01944
1320419965138,3.03989
1320420025138,3.04174
1320420085138,3.02890
1320420145138,3.04988
1320420205138,3.03875
1320420265138,3.01896
1320420325138,3.03624
1320420385138,3.03652
1320420445138,3.04942
1320420505138,3.01852
1320420565138,3.01673
1320420625138,3.03205
1320420685138,3.03765
1320420745138,3.03620
1320420805138,3.04096
1320420865138,3.01981
1320420925138,3.05350
1320420985138,3.03069
1320421045138,3.02680
1320421105138,3.03496
1320421165138,3.04146
1320421225138,3.01246
1320421285138,3.04481
1320421345138,3.03195
1320421405138,3.02665
1320421465138,3.02804
1320421525138,3.03651
1320421585138,3.02963
1320421645138,3.02934
1320421705138,3.03770
1320421765138,3.03692
1320421825138,3.01364
1320421885138,3.00854
1320421945138,3.04650
1320422005138,3.04381
1320422065138,3.03950
1320422125138,3.01315
1320422185138,3.04669
1320422245138,3.03121
1320422305138,3.02838
1320422365138,3.02685
1320422425151,3.02845
1320422485151,3.03916
1320422545151,3.02181
1320422605151,3.02242
1320422665151,3.04237
1320422725151,3.02379
1320422785151,3.03128
1320422845151,2.99179
1320422905151,3.02544
1320422965151,3.02882
1320423025151,3.03551
1320423085151,3.04114
1320423145151,2.96453
1320423685151,3.03180
1320423745151,3.01370
1320423805151,3.02812
1320423865151,3.02983
1320423925151,3.03337
1320423985151,3.01024
1320424045151,3.03372
1320424105151,3.03196
1320424165151,3.00564
1320424225151,3.01237
1320424285151,3.00379
1320424345151,3.04263
1320424405151,2.99332
1320424465151,3.02454
1320424525151,3.02340
1320424585151,3.01717
1320424645151,3.03628
1320424705151,3.02160
1320424765151,3.00626
1320424825151,3.01423
1320424885151,3.00537
1320424945151,3.02485
1320425005151,3.00621
1320425065151,3.01385
1320425125151,3.01716
1320425185151,3.03589
1320425245151,3.02290
1320425305151,2.99076
1320425365151,3.00621
1320425425151,2.99347
1320425485151,3.02282
1320425545151,3.03475
1320425605151,2.99480
1320425665151,3.00891
1320425725151,3.01522
1320425785151,3.01582
1320425845151,3.01854
1320425905151,2.99233
1320425965151,2.96451
1320426025163,3.01864
1320426085163,3.02708
1320426145163,3.00360
1320426205163,3.01186
1320426265163,2.99593
1320426325163,2.99959
1320426385163,3.03242
1320426445163,3.03713
1320426505163,3.00710
1320426565163,3.01862
1320426625163,3.02485
1320426685163,3.01030
1320426745163,3.01005
1320426805163,3.00182
1320426865163,2.99893
1320426925163,3.00363
1320426985163,3.02623
1320427045163,3.00123
1320427105163,2.99954
1320427165163,3.04008
1320427225163,3.01669
1320427285163,3.01443
1320427345163,2.98992
1320427405163,3.00538
1320427465163,2.98999
1320427525163,3.00810
1320427585163,2.98984
1320427645163,3.00245
1320427705163,3.01930
1320427765163,3.00027
1320427825163,2.99346
1320427885163,3.02310
1320427945163,3.02999
1320428005163,3.02948
1320428065163,3.02102
1320428125163,3.03376
1320428185163,3.01966
1320428245163,3.04192
1320428305163,3.01593
1320428365163,2.91511
1320428425163,3.05629
1320428485163,3.02845
1320428545163,3.01283
1320428605163,3.03508
1320428665163,3.03851
1320428725163,3.05329
1320428785163,3.04797
1320428845163,3.02847
1320428905163,3.03994
1320428965163,3.02427
1320429025163,3.03861
1320429085163,3.03943
1320429145163,3.03129
1320429205163,3.02233
1320429265163,3.02537
1320429325163,3.05311
1320429385163,3.03006
1320429445163,3.02405
1320429505163,3.03714
1320429565163,3.00644
1320429625174,3.03441
1320429685174,3.02513
1320429745174,3.04807
1320429805174,3.02887
1320429865174,3.01199
1320429925174,3.03769
1320429985174,3.02550
1320430045174,3.03395
1320430105174,3.02972
1320430165174,3.02683
1320430225174,3.04268
1320430285174,3.04261
1320430345174,3.04844
1320430405174,3.05242
1320430465174,3.06587
1320430525174,3.04804
1320430585174,3.04833
1320430645174,3.03040